NFC9345 GCLP-GVAC

Flight info

Callsign NFC9345
Flight time 2h 17m
Altitude 30000
Route ODEGI2A ODEGI N873 UDATI/N0497F320 N873 IPERA DCT DIMKI DIMKI1S
Aircraft B77L/H-SDE1E2E3FGHIJ2J3J4J5M1RWXY/LB1D1

Departure

Time 2026-04-21 23:43
Airport Gran Canaria Airport (GCLP)

Arrival

Time 2026-04-22 02:00
Airport Amílcar Cabral International Airport (GVAC)
Time Latitude Longitude Altitude Speed Heading
2026-04-21 23:02 27.93375 -15.39000 59 ft 0 kts 293°
2026-04-21 23:30 27.93374 -15.38998 59 ft 2 kts 293°
2026-04-21 23:30 27.93365 -15.38972 57 ft 4 kts 284°
2026-04-21 23:30 27.93364 -15.38944 51 ft 4 kts 248°
2026-04-21 23:30 27.93379 -15.38922 50 ft 4 kts 207°
2026-04-21 23:31 27.93392 -15.38916 50 ft 1 kts 200°
2026-04-21 23:31 27.93393 -15.38915 50 ft 1 kts 200°
2026-04-21 23:33 27.93365 -15.38927 51 ft 7 kts 200°
2026-04-21 23:34 27.93318 -15.38947 52 ft 7 kts 200°
2026-04-21 23:34 27.93271 -15.38967 54 ft 7 kts 200°
2026-04-21 23:34 27.93223 -15.38988 53 ft 7 kts 201°
2026-04-21 23:34 27.93176 -15.39008 56 ft 7 kts 201°
2026-04-21 23:35 27.93129 -15.39028 54 ft 7 kts 201°
2026-04-21 23:35 27.93082 -15.39050 56 ft 7 kts 202°
2026-04-21 23:35 27.93036 -15.39072 60 ft 7 kts 202°
2026-04-21 23:35 27.92989 -15.39094 59 ft 7 kts 202°
2026-04-21 23:36 27.92942 -15.39115 59 ft 7 kts 202°
2026-04-21 23:36 27.92894 -15.39115 61 ft 7 kts 153°
2026-04-21 23:36 27.92864 -15.39070 62 ft 7 kts 120°
2026-04-21 23:36 27.92826 -15.39034 60 ft 7 kts 165°
2026-04-21 23:37 27.92776 -15.39042 59 ft 7 kts 196°
2026-04-21 23:37 27.92729 -15.39063 62 ft 7 kts 203°
2026-04-21 23:37 27.92681 -15.39084 65 ft 7 kts 201°
2026-04-21 23:37 27.92634 -15.39105 61 ft 7 kts 201°
2026-04-21 23:38 27.92587 -15.39126 64 ft 7 kts 201°
2026-04-21 23:38 27.92539 -15.39147 63 ft 7 kts 201°
2026-04-21 23:38 27.92491 -15.39168 65 ft 7 kts 201°
2026-04-21 23:38 27.92444 -15.39189 66 ft 7 kts 201°
2026-04-21 23:39 27.92396 -15.39209 70 ft 7 kts 201°
2026-04-21 23:39 27.92349 -15.39230 66 ft 7 kts 201°
2026-04-21 23:39 27.92301 -15.39251 73 ft 7 kts 200°
2026-04-21 23:39 27.92253 -15.39271 67 ft 7 kts 201°
2026-04-21 23:40 27.92205 -15.39291 69 ft 7 kts 200°
2026-04-21 23:40 27.92156 -15.39305 72 ft 7 kts 188°
2026-04-21 23:40 27.92105 -15.39305 82 ft 7 kts 178°
2026-04-21 23:40 27.92054 -15.39303 79 ft 7 kts 177°
2026-04-21 23:41 27.92003 -15.39300 82 ft 7 kts 177°
2026-04-21 23:41 27.91954 -15.39285 81 ft 7 kts 152°
2026-04-21 23:41 27.91936 -15.39236 85 ft 8 kts 72°
2026-04-21 23:41 27.91977 -15.39198 83 ft 8 kts 26°
2026-04-21 23:42 27.92182 -15.39106 68 ft 67 kts 21°
2026-04-21 23:42 27.92834 -15.38817 62 ft 133 kts 21°
2026-04-21 23:42 27.93865 -15.38358 96 ft 179 kts 21°
2026-04-21 23:42 27.95010 -15.37785 668 ft 177 kts 22°
2026-04-21 23:43 27.96138 -15.37283 1386 ft 175 kts 20°
2026-04-21 23:43 27.97316 -15.36792 1814 ft 187 kts 19°
2026-04-21 23:43 27.98604 -15.36253 2017 ft 210 kts 20°
2026-04-21 23:43 28.00050 -15.35643 2275 ft 231 kts 20°
2026-04-21 23:44 28.01562 -15.34926 2717 ft 243 kts 31°
2026-04-21 23:44 28.02695 -15.33465 3195 ft 257 kts 66°
2026-04-21 23:44 28.02935 -15.31446 3823 ft 268 kts 99°
2026-04-21 23:44 28.02292 -15.29456 4421 ft 273 kts 115°
2026-04-21 23:45 28.01473 -15.27491 5116 ft 277 kts 115°
2026-04-21 23:45 27.99809 -15.23511 6594 ft 282 kts 116°
2026-04-21 23:45 27.98972 -15.21493 7253 ft 287 kts 116°
2026-04-21 23:46 27.98129 -15.19447 7942 ft 289 kts 116°
2026-04-21 23:46 27.97272 -15.17355 8495 ft 297 kts 116°
2026-04-21 23:46 27.96416 -15.15264 9232 ft 297 kts 116°
2026-04-21 23:46 27.95535 -15.13106 9930 ft 301 kts 116°
2026-04-21 23:47 27.94662 -15.10964 10402 ft 311 kts 116°
2026-04-21 23:47 27.93729 -15.08676 10556 ft 333 kts 116°
2026-04-21 23:47 27.92724 -15.06215 10729 ft 355 kts 116°
2026-04-21 23:47 27.91657 -15.03602 10887 ft 376 kts 116°
2026-04-21 23:48 27.90280 -15.01083 11089 ft 383 kts 136°
2026-04-21 23:48 27.88087 -14.99429 11576 ft 385 kts 162°
2026-04-21 23:48 27.85460 -14.98992 12228 ft 384 kts 187°
2026-04-21 23:48 27.82933 -14.99845 12930 ft 381 kts 211°
2026-04-21 23:49 27.80951 -15.01802 13558 ft 382 kts 235°
2026-04-21 23:49 27.79831 -15.04503 14156 ft 381 kts 254°
2026-04-21 23:49 27.78924 -15.07302 14468 ft 383 kts 239°
2026-04-21 23:49 27.77135 -15.09567 14872 ft 388 kts 222°
2026-04-21 23:50 27.75123 -15.11638 15277 ft 394 kts 227°
2026-04-21 23:50 27.73346 -15.14015 15854 ft 397 kts 235°
2026-04-21 23:50 27.71825 -15.16624 16453 ft 400 kts 240°
2026-04-21 23:50 27.70446 -15.19369 17019 ft 403 kts 243°
2026-04-21 23:51 27.69175 -15.22194 17616 ft 406 kts 246°
2026-04-21 23:51 27.68047 -15.25109 18184 ft 409 kts 250°
2026-04-21 23:51 27.67081 -15.28143 18672 ft 413 kts 253°
2026-04-21 23:51 27.66296 -15.31261 19217 ft 414 kts 257°
2026-04-21 23:52 27.65696 -15.34446 19767 ft 416 kts 261°
2026-04-21 23:52 27.65288 -15.37660 20312 ft 418 kts 264°
2026-04-21 23:52 27.65070 -15.40934 20854 ft 420 kts 268°
2026-04-21 23:52 27.65045 -15.44215 21387 ft 422 kts 271°
2026-04-21 23:53 27.65187 -15.47532 21922 ft 425 kts 275°
2026-04-21 23:53 27.65531 -15.50851 22436 ft 427 kts 279°
2026-04-21 23:53 27.65945 -15.54162 22866 ft 430 kts 275°
2026-04-21 23:53 27.66168 -15.57542 23362 ft 434 kts 274°
2026-04-21 23:54 27.66362 -15.60943 23837 ft 436 kts 274°
2026-04-21 23:54 27.66595 -15.64363 24295 ft 438 kts 275°
2026-04-21 23:54 27.66672 -15.67781 24630 ft 438 kts 264°
2026-04-21 23:54 27.65871 -15.71094 24918 ft 446 kts 246°
2026-04-21 23:55 27.64267 -15.74041 25386 ft 450 kts 234°
2026-04-21 23:55 27.62053 -15.76617 25876 ft 455 kts 220°
2026-04-21 23:55 27.59480 -15.78597 26256 ft 459 kts 215°
2026-04-21 23:55 27.56760 -15.80522 26612 ft 464 kts 214°
2026-04-21 23:56 27.54001 -15.82443 27026 ft 467 kts 214°
2026-04-21 23:56 27.51235 -15.84380 27466 ft 469 kts 215°
2026-04-21 23:56 27.48469 -15.86343 27910 ft 471 kts 215°
2026-04-21 23:56 27.45702 -15.88329 28338 ft 474 kts 216°
2026-04-21 23:57 27.42916 -15.90346 28713 ft 477 kts 216°
2026-04-21 23:57 27.40123 -15.92376 29125 ft 479 kts 216°
2026-04-21 23:57 27.37330 -15.94409 29520 ft 481 kts 216°
2026-04-21 23:57 27.34506 -15.96465 29914 ft 483 kts 216°
2026-04-21 23:58 27.31684 -15.98515 30367 ft 483 kts 217°
2026-04-21 23:58 27.28880 -16.00550 30881 ft 479 kts 217°
2026-04-21 23:58 27.26092 -16.02569 31465 ft 474 kts 217°
2026-04-21 23:58 27.23339 -16.04563 32007 ft 471 kts 218°
2026-04-21 23:59 27.20601 -16.06545 32464 ft 468 kts 218°
2026-04-21 23:59 27.17868 -16.08525 32893 ft 467 kts 218°
2026-04-21 23:59 27.15150 -16.10492 33312 ft 466 kts 219°
2026-04-21 23:59 27.12430 -16.12459 33743 ft 464 kts 219°
2026-04-22 00:00 27.09760 -16.14387 34172 ft 460 kts 220°
2026-04-22 00:00 27.07080 -16.16320 34590 ft 456 kts 221°
2026-04-22 00:00 27.04418 -16.18242 34948 ft 454 kts 221°
2026-04-22 00:01 26.99127 -16.22066 35024 ft 457 kts 221°
2026-04-22 00:01 26.93792 -16.25908 35006 ft 453 kts 221°
2026-04-22 00:02 26.88533 -16.29691 35016 ft 451 kts 221°
2026-04-22 00:02 26.83287 -16.33449 35016 ft 450 kts 221°
2026-04-22 00:03 26.78023 -16.37210 35019 ft 449 kts 222°
2026-04-22 00:03 26.72753 -16.40977 35013 ft 449 kts 222°
2026-04-22 00:04 26.67486 -16.44739 35015 ft 449 kts 222°
2026-04-22 00:04 26.62214 -16.48499 35015 ft 449 kts 222°
2026-04-22 00:05 26.56968 -16.52236 35008 ft 450 kts 222°
2026-04-22 00:05 26.51689 -16.55993 35015 ft 450 kts 222°
2026-04-22 00:06 26.46406 -16.59747 35007 ft 450 kts 223°
2026-04-22 00:06 26.41125 -16.63497 35009 ft 449 kts 223°
2026-04-22 00:07 26.35856 -16.67233 35011 ft 449 kts 223°
2026-04-22 00:07 26.30627 -16.70939 35007 ft 448 kts 223°
2026-04-22 00:08 26.25375 -16.74657 35009 ft 447 kts 223°
2026-04-22 00:08 26.20134 -16.78362 35010 ft 446 kts 223°
2026-04-22 00:09 26.14916 -16.82054 35012 ft 444 kts 224°
2026-04-22 00:09 26.09710 -16.85743 35008 ft 443 kts 224°
2026-04-22 00:10 26.04538 -16.89406 35009 ft 442 kts 224°
2026-04-22 00:10 25.99361 -16.93068 35011 ft 442 kts 224°
2026-04-22 00:11 25.94176 -16.96731 35014 ft 441 kts 224°
2026-04-22 00:11 25.89004 -17.00381 35008 ft 442 kts 224°
2026-04-22 00:12 25.83819 -17.04036 34978 ft 442 kts 224°
2026-04-22 00:12 25.78640 -17.07680 35002 ft 440 kts 224°
2026-04-22 00:13 25.73469 -17.11319 35015 ft 440 kts 224°
2026-04-22 00:13 25.68301 -17.14951 35010 ft 440 kts 224°
2026-04-22 00:14 25.64015 -17.17959 35010 ft 439 kts 224°
2026-04-22 00:14 25.58906 -17.21543 35009 ft 439 kts 224°
2026-04-22 00:15 25.52914 -17.25741 35006 ft 439 kts 224°
2026-04-22 00:15 25.47760 -17.29346 35000 ft 438 kts 224°
2026-04-22 00:16 25.43445 -17.32363 35008 ft 438 kts 224°
2026-04-22 00:16 25.38312 -17.35949 35006 ft 437 kts 224°
2026-04-22 00:17 25.33171 -17.39537 35011 ft 437 kts 224°
2026-04-22 00:17 25.28074 -17.43089 35007 ft 436 kts 224°
2026-04-22 00:18 25.22942 -17.46663 35007 ft 436 kts 224°
2026-04-22 00:18 25.17817 -17.50228 34988 ft 435 kts 224°
2026-04-22 00:19 25.12705 -17.53781 35007 ft 434 kts 224°
2026-04-22 00:19 25.07602 -17.57325 35013 ft 433 kts 224°
2026-04-22 00:20 25.02495 -17.60869 35015 ft 433 kts 224°
2026-04-22 00:20 24.97390 -17.64403 35012 ft 434 kts 224°
2026-04-22 00:21 24.92275 -17.67933 35014 ft 434 kts 224°
2026-04-22 00:21 24.87162 -17.71457 34979 ft 434 kts 224°
2026-04-22 00:22 24.82066 -17.74967 34993 ft 434 kts 224°
2026-04-22 00:22 24.76954 -17.78487 35002 ft 434 kts 224°
2026-04-22 00:23 24.71845 -17.82002 35009 ft 434 kts 224°
2026-04-22 00:23 24.66715 -17.85527 35009 ft 435 kts 224°
2026-04-22 00:24 24.61576 -17.89055 35011 ft 436 kts 224°
2026-04-22 00:24 24.56430 -17.92584 35011 ft 436 kts 224°
2026-04-22 00:25 24.51282 -17.96110 35008 ft 436 kts 224°
2026-04-22 00:25 24.46128 -17.99638 35010 ft 437 kts 224°
2026-04-22 00:26 24.41003 -18.03143 35004 ft 438 kts 224°
2026-04-22 00:26 24.35796 -18.06700 35009 ft 438 kts 224°
2026-04-22 00:27 24.30616 -18.10235 35002 ft 439 kts 223°
2026-04-22 00:27 24.25447 -18.13759 35012 ft 439 kts 223°
2026-04-22 00:28 24.20259 -18.17292 34977 ft 439 kts 223°
2026-04-22 00:28 24.15079 -18.20817 35001 ft 439 kts 223°
2026-04-22 00:29 24.09888 -18.24345 35016 ft 439 kts 223°
2026-04-22 00:29 24.04705 -18.27866 35011 ft 440 kts 223°
2026-04-22 00:30 23.99501 -18.31397 35010 ft 440 kts 223°
2026-04-22 00:30 23.94335 -18.34898 35011 ft 440 kts 223°
2026-04-22 00:31 23.89136 -18.38418 35007 ft 440 kts 223°
2026-04-22 00:31 23.83931 -18.41940 35002 ft 440 kts 223°
2026-04-22 00:32 23.78724 -18.45459 35000 ft 440 kts 223°
2026-04-22 00:32 23.73535 -18.48963 35013 ft 440 kts 223°
2026-04-22 00:33 23.68320 -18.52481 35013 ft 441 kts 223°
2026-04-22 00:33 23.63100 -18.55999 35011 ft 441 kts 223°
2026-04-22 00:34 23.57883 -18.59512 35008 ft 441 kts 222°
2026-04-22 00:34 23.52656 -18.63028 35008 ft 441 kts 222°
2026-04-22 00:35 23.47427 -18.66542 35008 ft 442 kts 222°
2026-04-22 00:35 23.42197 -18.70053 35004 ft 442 kts 222°
2026-04-22 00:36 23.36968 -18.73561 35005 ft 441 kts 222°
2026-04-22 00:36 23.31751 -18.77057 35006 ft 441 kts 222°
2026-04-22 00:37 23.26552 -18.80538 35008 ft 441 kts 222°
2026-04-22 00:37 23.21329 -18.84032 34978 ft 441 kts 222°
2026-04-22 00:38 23.16098 -18.87528 34997 ft 442 kts 222°
2026-04-22 00:38 23.10894 -18.91003 35007 ft 442 kts 222°
2026-04-22 00:39 23.05646 -18.94504 35006 ft 443 kts 222°
2026-04-22 00:39 23.00390 -18.98007 35006 ft 444 kts 222°
2026-04-22 00:40 22.95129 -19.01510 35009 ft 444 kts 222°
2026-04-22 00:40 22.89856 -19.05017 35008 ft 444 kts 222°
2026-04-22 00:41 22.84586 -19.08519 35000 ft 444 kts 221°
2026-04-22 00:41 22.79314 -19.12019 35002 ft 445 kts 221°
2026-04-22 00:42 22.74040 -19.15518 35000 ft 445 kts 221°
2026-04-22 00:42 22.68760 -19.19018 35001 ft 445 kts 221°
2026-04-22 00:43 22.63482 -19.22513 35007 ft 445 kts 221°
2026-04-22 00:43 22.58199 -19.26007 35011 ft 445 kts 221°
2026-04-22 00:44 22.52903 -19.29512 34371 ft 455 kts 221°
2026-04-22 00:44 22.50200 -19.31306 33657 ft 458 kts 221°
2026-04-22 00:44 22.47477 -19.33103 32767 ft 459 kts 221°
2026-04-22 00:44 22.44747 -19.34901 31925 ft 459 kts 221°
2026-04-22 00:45 22.42055 -19.36673 31047 ft 460 kts 221°
2026-04-22 00:45 22.39325 -19.38470 30352 ft 458 kts 221°
2026-04-22 00:45 22.36614 -19.40252 29633 ft 454 kts 220°
2026-04-22 00:45 22.33930 -19.42017 28944 ft 450 kts 220°
2026-04-22 00:46 22.31270 -19.43767 28303 ft 446 kts 220°
2026-04-22 00:46 22.28635 -19.45501 27703 ft 442 kts 219°
2026-04-22 00:46 22.26022 -19.47221 27105 ft 438 kts 219°
2026-04-22 00:46 22.23446 -19.48916 26534 ft 435 kts 218°
2026-04-22 00:47 22.20964 -19.50548 25948 ft 432 kts 218°
2026-04-22 00:47 22.18332 -19.52279 25381 ft 429 kts 218°
2026-04-22 00:47 22.15791 -19.53950 24817 ft 427 kts 217°
2026-04-22 00:47 22.13259 -19.55613 24231 ft 426 kts 217°
2026-04-22 00:48 22.10732 -19.57272 23664 ft 425 kts 216°
2026-04-22 00:48 22.08214 -19.58923 23250 ft 423 kts 216°
2026-04-22 00:48 22.05685 -19.60582 23082 ft 427 kts 216°
2026-04-22 00:48 22.03149 -19.62244 23008 ft 425 kts 216°
2026-04-22 00:49 22.00626 -19.63895 23009 ft 424 kts 216°
2026-04-22 00:49 21.98106 -19.65544 23005 ft 425 kts 216°
2026-04-22 00:49 21.95576 -19.67201 23005 ft 425 kts 216°
2026-04-22 00:49 21.93046 -19.68857 23004 ft 426 kts 216°
2026-04-22 00:50 21.90516 -19.70511 23004 ft 426 kts 216°
2026-04-22 00:50 21.87980 -19.72170 22989 ft 426 kts 216°
2026-04-22 00:50 21.85450 -19.73822 22997 ft 426 kts 216°
2026-04-22 00:50 21.82931 -19.75468 23002 ft 426 kts 216°
2026-04-22 00:51 21.80397 -19.77123 23003 ft 426 kts 216°
2026-04-22 00:51 21.77877 -19.78768 23004 ft 426 kts 216°
2026-04-22 00:51 21.75353 -19.80415 23003 ft 426 kts 216°
2026-04-22 00:51 21.72819 -19.82068 23005 ft 426 kts 216°
2026-04-22 00:52 21.70285 -19.83720 23006 ft 426 kts 216°
2026-04-22 00:52 21.67762 -19.85364 23004 ft 426 kts 216°
2026-04-22 00:52 21.65227 -19.87016 23003 ft 426 kts 216°
2026-04-22 00:52 21.62694 -19.88665 23007 ft 426 kts 216°
2026-04-22 00:53 21.60204 -19.90286 23011 ft 426 kts 216°
2026-04-22 00:53 21.57640 -19.91954 23005 ft 426 kts 216°
2026-04-22 00:53 21.55139 -19.93581 23008 ft 426 kts 216°
2026-04-22 00:53 21.52638 -19.95205 22994 ft 425 kts 216°
2026-04-22 00:54 21.50103 -19.96853 23003 ft 426 kts 216°
2026-04-22 00:54 21.47566 -19.98501 23008 ft 426 kts 216°
2026-04-22 00:54 21.45031 -20.00147 23010 ft 426 kts 216°
2026-04-22 00:54 21.42492 -20.01795 23010 ft 427 kts 216°
2026-04-22 00:55 21.39949 -20.03445 23012 ft 427 kts 216°
2026-04-22 00:55 21.37417 -20.05087 23009 ft 427 kts 216°
2026-04-22 00:55 21.32335 -20.08381 23011 ft 428 kts 216°
2026-04-22 00:56 21.29799 -20.10023 23011 ft 428 kts 216°
2026-04-22 00:56 21.27254 -20.11671 23010 ft 428 kts 216°
2026-04-22 00:56 21.24705 -20.13320 23011 ft 428 kts 216°
2026-04-22 00:56 21.22157 -20.14968 23008 ft 428 kts 216°
2026-04-22 00:57 21.19610 -20.16615 22991 ft 428 kts 217°
2026-04-22 00:57 21.17062 -20.18261 23004 ft 428 kts 217°
2026-04-22 00:57 21.14516 -20.19907 23004 ft 428 kts 217°
2026-04-22 00:57 21.11966 -20.21554 23014 ft 428 kts 217°
2026-04-22 00:58 21.09425 -20.23195 23015 ft 428 kts 217°
2026-04-22 00:58 21.06872 -20.24843 23010 ft 429 kts 217°
2026-04-22 00:58 21.04316 -20.26491 23006 ft 429 kts 217°
2026-04-22 00:58 21.01763 -20.28137 23011 ft 429 kts 217°
2026-04-22 00:59 20.99206 -20.29786 23008 ft 429 kts 217°
2026-04-22 00:59 20.96643 -20.31436 23008 ft 429 kts 217°
2026-04-22 00:59 20.94130 -20.33055 23013 ft 429 kts 217°
2026-04-22 00:59 20.91571 -20.34702 23012 ft 429 kts 217°
2026-04-22 01:00 20.89021 -20.36343 23008 ft 429 kts 217°
2026-04-22 01:00 20.86465 -20.37988 22997 ft 429 kts 217°
2026-04-22 01:00 20.83903 -20.39635 23003 ft 429 kts 217°
2026-04-22 01:00 20.81342 -20.41281 23011 ft 430 kts 217°
2026-04-22 01:01 20.78793 -20.42919 23016 ft 430 kts 217°
2026-04-22 01:01 20.76228 -20.44567 23012 ft 430 kts 217°
2026-04-22 01:01 20.73659 -20.46217 23009 ft 431 kts 217°
2026-04-22 01:01 20.71092 -20.47863 23011 ft 431 kts 217°
2026-04-22 01:02 20.68516 -20.49516 23012 ft 431 kts 217°
2026-04-22 01:02 20.65942 -20.51166 23015 ft 432 kts 217°
2026-04-22 01:02 20.63368 -20.52816 23013 ft 432 kts 217°
2026-04-22 01:02 20.60790 -20.54468 23014 ft 432 kts 217°
2026-04-22 01:03 20.58213 -20.56118 23014 ft 432 kts 217°
2026-04-22 01:03 20.55637 -20.57767 23014 ft 432 kts 217°
2026-04-22 01:03 20.53932 -20.58859 23013 ft 432 kts 217°
2026-04-22 01:03 20.50481 -20.61066 22995 ft 432 kts 217°
2026-04-22 01:04 20.48772 -20.62158 23002 ft 432 kts 217°
2026-04-22 01:04 20.46196 -20.63805 23009 ft 432 kts 217°
2026-04-22 01:04 20.42780 -20.65989 23015 ft 432 kts 217°
2026-04-22 01:04 20.40221 -20.67624 23015 ft 432 kts 217°
2026-04-22 01:05 20.37635 -20.69274 23014 ft 433 kts 217°
2026-04-22 01:05 20.35890 -20.70388 23007 ft 433 kts 217°
2026-04-22 01:05 20.33302 -20.72036 22835 ft 434 kts 217°
2026-04-22 01:05 20.30720 -20.73677 22695 ft 431 kts 217°
2026-04-22 01:06 20.28152 -20.75307 22551 ft 428 kts 217°
2026-04-22 01:06 20.25634 -20.76905 22421 ft 427 kts 217°
2026-04-22 01:06 20.23081 -20.78526 22281 ft 427 kts 217°
2026-04-22 01:06 20.20552 -20.80132 22146 ft 426 kts 217°
2026-04-22 01:07 20.18022 -20.81738 22009 ft 425 kts 216°
2026-04-22 01:07 20.15485 -20.83349 21874 ft 424 kts 216°
2026-04-22 01:07 20.12952 -20.84956 21742 ft 423 kts 216°
2026-04-22 01:07 20.10422 -20.86561 21606 ft 423 kts 216°
2026-04-22 01:08 20.07898 -20.88161 21479 ft 422 kts 216°
2026-04-22 01:08 20.05377 -20.89758 21343 ft 421 kts 216°
2026-04-22 01:08 20.02869 -20.91348 21206 ft 421 kts 216°
2026-04-22 01:08 20.00355 -20.92939 21072 ft 420 kts 216°
2026-04-22 01:09 19.97849 -20.94526 20939 ft 419 kts 216°
2026-04-22 01:09 19.95345 -20.96110 20803 ft 418 kts 216°
2026-04-22 01:09 19.92849 -20.97688 20672 ft 417 kts 215°
2026-04-22 01:09 19.90359 -20.99263 20527 ft 416 kts 215°
2026-04-22 01:10 19.87877 -21.00831 20406 ft 415 kts 215°
2026-04-22 01:10 19.85396 -21.02399 20272 ft 414 kts 215°
2026-04-22 01:10 19.82924 -21.03960 20135 ft 413 kts 215°
2026-04-22 01:10 19.80460 -21.05515 20007 ft 411 kts 215°
2026-04-22 01:11 19.78036 -21.07045 19881 ft 410 kts 214°
2026-04-22 01:11 19.75588 -21.08589 19749 ft 409 kts 214°
2026-04-22 01:11 19.73173 -21.10112 19623 ft 408 kts 214°
2026-04-22 01:11 19.70733 -21.11651 19487 ft 407 kts 214°
2026-04-22 01:12 19.68308 -21.13179 19358 ft 407 kts 214°
2026-04-22 01:12 19.65878 -21.14710 19236 ft 406 kts 214°
2026-04-22 01:12 19.63453 -21.16237 19106 ft 405 kts 214°
2026-04-22 01:12 19.61037 -21.17758 18979 ft 404 kts 214°
2026-04-22 01:13 19.58623 -21.19278 18846 ft 403 kts 213°
2026-04-22 01:13 19.56213 -21.20794 18720 ft 402 kts 213°
2026-04-22 01:13 19.53812 -21.22304 18578 ft 401 kts 213°
2026-04-22 01:13 19.51418 -21.23809 18467 ft 400 kts 213°
2026-04-22 01:14 19.49027 -21.25312 18330 ft 399 kts 213°
2026-04-22 01:14 19.46651 -21.26804 18187 ft 398 kts 213°
2026-04-22 01:14 19.44274 -21.28296 18055 ft 397 kts 213°
2026-04-22 01:14 19.41896 -21.29788 17916 ft 396 kts 213°
2026-04-22 01:15 19.39530 -21.31272 17785 ft 395 kts 213°
2026-04-22 01:15 19.37167 -21.32754 17662 ft 394 kts 213°
2026-04-22 01:15 19.34811 -21.34232 17525 ft 393 kts 213°
2026-04-22 01:15 19.32461 -21.35705 17415 ft 393 kts 213°
2026-04-22 01:16 19.30114 -21.37177 17287 ft 392 kts 213°
2026-04-22 01:16 19.27766 -21.38647 17155 ft 392 kts 213°
2026-04-22 01:16 19.25425 -21.40114 17026 ft 391 kts 213°
2026-04-22 01:16 19.23084 -21.41580 16910 ft 391 kts 213°
2026-04-22 01:17 19.20749 -21.43040 16785 ft 390 kts 213°
2026-04-22 01:17 19.18415 -21.44501 16660 ft 390 kts 213°
2026-04-22 01:17 19.16083 -21.45959 16537 ft 389 kts 213°
2026-04-22 01:17 19.13755 -21.47415 16418 ft 388 kts 213°
2026-04-22 01:18 19.11429 -21.48869 16286 ft 388 kts 213°
2026-04-22 01:18 19.09108 -21.50319 16161 ft 387 kts 213°
2026-04-22 01:18 19.06790 -21.51767 16036 ft 386 kts 213°
2026-04-22 01:18 19.04478 -21.53210 15929 ft 386 kts 213°
2026-04-22 01:19 19.02170 -21.54652 15782 ft 385 kts 213°
2026-04-22 01:19 18.99861 -21.56092 15674 ft 385 kts 213°
2026-04-22 01:19 18.97558 -21.57529 15547 ft 384 kts 213°
2026-04-22 01:19 18.95260 -21.58962 15423 ft 383 kts 213°
2026-04-22 01:20 18.92965 -21.60393 15308 ft 383 kts 213°
2026-04-22 01:20 18.90676 -21.61819 15183 ft 382 kts 213°
2026-04-22 01:20 18.88387 -21.63245 15058 ft 381 kts 213°
2026-04-22 01:20 18.86132 -21.64649 14942 ft 381 kts 213°
2026-04-22 01:21 18.83826 -21.66086 14816 ft 380 kts 213°
2026-04-22 01:21 18.81583 -21.67481 14688 ft 379 kts 213°
2026-04-22 01:21 18.79312 -21.68895 14569 ft 378 kts 213°
2026-04-22 01:21 18.77044 -21.70305 14448 ft 377 kts 213°
2026-04-22 01:22 18.74788 -21.71708 14335 ft 377 kts 213°
2026-04-22 01:22 18.72531 -21.73111 14221 ft 376 kts 213°
2026-04-22 01:22 18.70280 -21.74510 14096 ft 375 kts 213°
2026-04-22 01:22 18.68037 -21.75903 13978 ft 374 kts 213°
2026-04-22 01:23 18.65797 -21.77294 13857 ft 374 kts 213°
2026-04-22 01:23 18.63558 -21.78685 13730 ft 373 kts 213°
2026-04-22 01:23 18.61325 -21.80070 13598 ft 372 kts 213°
2026-04-22 01:23 18.59096 -21.81453 13470 ft 371 kts 213°
2026-04-22 01:24 18.56847 -21.82848 13357 ft 370 kts 213°
2026-04-22 01:24 18.54629 -21.84223 13231 ft 369 kts 213°
2026-04-22 01:24 18.52421 -21.85592 13105 ft 368 kts 213°
2026-04-22 01:24 18.50247 -21.86940 13004 ft 367 kts 213°
2026-04-22 01:25 18.48052 -21.88300 12882 ft 366 kts 213°
2026-04-22 01:25 18.45857 -21.89659 12749 ft 365 kts 213°
2026-04-22 01:25 18.43672 -21.91012 12646 ft 364 kts 213°
2026-04-22 01:25 18.41490 -21.92362 12530 ft 363 kts 213°
2026-04-22 01:26 18.39313 -21.93709 12404 ft 362 kts 213°
2026-04-22 01:26 18.37143 -21.95052 12304 ft 362 kts 213°
2026-04-22 01:26 18.34986 -21.96386 12183 ft 361 kts 213°
2026-04-22 01:26 18.32822 -21.97724 12064 ft 360 kts 213°
2026-04-22 01:27 18.30671 -21.99053 11958 ft 359 kts 213°
2026-04-22 01:27 18.28516 -22.00385 11860 ft 359 kts 213°
2026-04-22 01:27 18.26368 -22.01712 11721 ft 358 kts 213°
2026-04-22 01:27 18.24222 -22.03037 11619 ft 357 kts 213°
2026-04-22 01:28 18.22080 -22.04359 11500 ft 357 kts 213°
2026-04-22 01:28 18.20007 -22.05639 11391 ft 356 kts 213°
2026-04-22 01:28 18.17818 -22.06990 11276 ft 355 kts 213°
2026-04-22 01:28 18.15687 -22.08304 11162 ft 355 kts 213°
2026-04-22 01:29 18.13555 -22.09619 11044 ft 354 kts 213°
2026-04-22 01:29 18.11432 -22.10928 10917 ft 353 kts 213°
2026-04-22 01:29 18.09318 -22.12231 10817 ft 352 kts 213°
2026-04-22 01:29 18.07216 -22.13525 10707 ft 347 kts 213°
2026-04-22 01:30 18.05168 -22.14785 10600 ft 334 kts 213°
2026-04-22 01:30 18.03201 -22.15994 10475 ft 321 kts 213°
2026-04-22 01:30 18.01327 -22.17147 10369 ft 307 kts 213°
2026-04-22 01:30 17.99526 -22.18255 10272 ft 294 kts 213°
2026-04-22 01:31 17.97820 -22.19305 10177 ft 281 kts 214°
2026-04-22 01:31 17.96148 -22.20335 10080 ft 268 kts 214°
2026-04-22 01:31 17.94582 -22.21299 10002 ft 258 kts 214°
2026-04-22 01:31 17.93051 -22.22243 9940 ft 260 kts 214°
2026-04-22 01:32 17.91470 -22.23217 9857 ft 259 kts 214°
2026-04-22 01:32 17.89918 -22.24171 9766 ft 258 kts 214°
2026-04-22 01:32 17.88373 -22.25120 9672 ft 257 kts 214°
2026-04-22 01:32 17.86857 -22.26052 9611 ft 255 kts 214°
2026-04-22 01:33 17.85329 -22.26990 9516 ft 255 kts 214°
2026-04-22 01:33 17.83800 -22.27928 9435 ft 254 kts 214°
2026-04-22 01:33 17.82273 -22.28866 9358 ft 254 kts 214°
2026-04-22 01:33 17.80748 -22.29802 9281 ft 254 kts 214°
2026-04-22 01:34 17.79218 -22.30741 9204 ft 255 kts 214°
2026-04-22 01:34 17.77686 -22.31682 9116 ft 256 kts 214°
2026-04-22 01:34 17.76147 -22.32627 9024 ft 256 kts 214°
2026-04-22 01:34 17.74608 -22.33571 8957 ft 257 kts 213°
2026-04-22 01:35 17.73064 -22.34518 8868 ft 257 kts 214°
2026-04-22 01:35 17.71531 -22.35458 8790 ft 256 kts 214°
2026-04-22 01:35 17.69990 -22.36403 8703 ft 256 kts 213°
2026-04-22 01:35 17.68457 -22.37342 8611 ft 255 kts 213°
2026-04-22 01:36 17.66921 -22.38284 8552 ft 255 kts 213°
2026-04-22 01:36 17.65393 -22.39220 8458 ft 254 kts 214°
2026-04-22 01:36 17.63878 -22.40148 8367 ft 253 kts 213°
2026-04-22 01:36 17.62356 -22.41080 8304 ft 253 kts 213°
2026-04-22 01:37 17.60841 -22.42008 8221 ft 252 kts 213°
2026-04-22 01:37 17.59327 -22.42935 8147 ft 252 kts 214°
2026-04-22 01:37 17.57824 -22.43855 8055 ft 252 kts 214°
2026-04-22 01:37 17.56325 -22.44773 7979 ft 252 kts 214°
2026-04-22 01:38 17.54813 -22.45698 7901 ft 252 kts 213°
2026-04-22 01:38 17.53302 -22.46623 7822 ft 252 kts 213°
2026-04-22 01:38 17.51804 -22.47540 7742 ft 253 kts 213°
2026-04-22 01:38 17.50290 -22.48465 7649 ft 253 kts 213°
2026-04-22 01:39 17.48768 -22.49396 7578 ft 253 kts 213°
2026-04-22 01:39 17.47254 -22.50321 7493 ft 254 kts 213°
2026-04-22 01:39 17.45730 -22.51253 7413 ft 254 kts 213°
2026-04-22 01:39 17.44205 -22.52185 7331 ft 254 kts 213°
2026-04-22 01:40 17.42678 -22.53118 7241 ft 254 kts 213°
2026-04-22 01:40 17.41162 -22.54045 7172 ft 254 kts 213°
2026-04-22 01:40 17.39635 -22.54977 7089 ft 254 kts 213°
2026-04-22 01:40 17.38116 -22.55905 6996 ft 253 kts 213°
2026-04-22 01:41 17.36594 -22.56834 6917 ft 252 kts 213°
2026-04-22 01:41 17.35080 -22.57757 6841 ft 251 kts 213°
2026-04-22 01:41 17.33572 -22.58677 6766 ft 251 kts 213°
2026-04-22 01:41 17.32063 -22.59598 6675 ft 251 kts 213°
2026-04-22 01:42 17.30557 -22.60517 6597 ft 250 kts 213°
2026-04-22 01:42 17.29055 -22.61433 6522 ft 249 kts 213°
2026-04-22 01:42 17.27559 -22.62346 6448 ft 249 kts 213°
2026-04-22 01:42 17.26062 -22.63258 6354 ft 249 kts 213°
2026-04-22 01:43 17.24607 -22.64145 6278 ft 249 kts 213°
2026-04-22 01:43 17.23111 -22.65058 6199 ft 249 kts 213°
2026-04-22 01:43 17.21636 -22.65956 6115 ft 249 kts 213°
2026-04-22 01:43 17.20142 -22.66867 6032 ft 249 kts 213°
2026-04-22 01:44 17.18644 -22.67780 5962 ft 249 kts 213°
2026-04-22 01:44 17.17141 -22.68696 5886 ft 250 kts 213°
2026-04-22 01:44 17.15634 -22.69613 5808 ft 251 kts 213°
2026-04-22 01:44 17.14124 -22.70533 5715 ft 252 kts 213°
2026-04-22 01:45 17.12610 -22.71456 5633 ft 252 kts 213°
2026-04-22 01:45 17.11069 -22.72393 5554 ft 253 kts 213°
2026-04-22 01:45 17.09568 -22.73306 5478 ft 253 kts 212°
2026-04-22 01:45 17.08026 -22.74243 5393 ft 253 kts 213°
2026-04-22 01:46 17.06519 -22.75159 5309 ft 254 kts 212°
2026-04-22 01:46 17.05487 -22.75787 5249 ft 254 kts 213°
2026-04-22 01:46 17.03622 -22.76921 5158 ft 254 kts 212°
2026-04-22 01:46 17.02092 -22.77852 5077 ft 254 kts 212°
2026-04-22 01:47 17.00564 -22.78780 4979 ft 255 kts 212°
2026-04-22 01:47 16.99033 -22.79711 4906 ft 254 kts 212°
2026-04-22 01:47 16.97504 -22.80640 4827 ft 254 kts 212°
2026-04-22 01:47 16.95971 -22.81571 4744 ft 255 kts 212°
2026-04-22 01:48 16.94439 -22.82501 4643 ft 254 kts 212°
2026-04-22 01:48 16.92911 -22.83428 4567 ft 254 kts 212°
2026-04-22 01:48 16.91394 -22.84349 4508 ft 253 kts 212°
2026-04-22 01:48 16.89875 -22.85271 4418 ft 253 kts 212°
2026-04-22 01:49 16.88354 -22.86195 4323 ft 253 kts 211°
2026-04-22 01:49 16.86833 -22.87118 4258 ft 253 kts 211°
2026-04-22 01:49 16.85309 -22.88042 4180 ft 254 kts 212°
2026-04-22 01:49 16.83779 -22.88971 4104 ft 255 kts 212°
2026-04-22 01:50 16.82238 -22.89905 4007 ft 257 kts 212°
2026-04-22 01:50 16.80694 -22.90843 3927 ft 257 kts 213°
2026-04-22 01:50 16.79671 -22.91462 3877 ft 257 kts 211°
2026-04-22 01:50 16.78117 -22.92404 3800 ft 260 kts 211°
2026-04-22 01:51 16.76543 -22.93360 3706 ft 263 kts 211°
2026-04-22 01:51 16.74957 -22.94321 3605 ft 265 kts 211°
2026-04-22 01:51 16.73359 -22.95266 3522 ft 263 kts 206°
2026-04-22 01:51 16.71657 -22.95976 3451 ft 265 kts 199°
2026-04-22 01:52 16.69904 -22.96581 3382 ft 266 kts 198°
2026-04-22 01:52 16.68151 -22.97180 3279 ft 267 kts 198°
2026-04-22 01:52 16.66393 -22.97791 3189 ft 264 kts 198°
2026-04-22 01:52 16.64658 -22.98404 3103 ft 263 kts 198°
2026-04-22 01:53 16.62931 -22.99021 3028 ft 263 kts 199°
2026-04-22 01:53 16.61202 -22.99645 2938 ft 264 kts 199°
2026-04-22 01:53 16.59470 -23.00272 2868 ft 263 kts 199°
2026-04-22 01:53 16.57749 -23.00897 2773 ft 261 kts 199°
2026-04-22 01:54 16.56051 -23.01514 2704 ft 260 kts 199°
2026-04-22 01:54 16.54338 -23.02118 2596 ft 258 kts 192°
2026-04-22 01:54 16.52570 -23.02107 2505 ft 256 kts 159°
2026-04-22 01:54 16.51106 -23.01142 2455 ft 249 kts 128°
2026-04-22 01:55 16.50282 -22.99601 2369 ft 244 kts 102°
2026-04-22 01:55 16.50203 -22.97864 2306 ft 242 kts 77°
2026-04-22 01:55 16.50906 -22.96304 2204 ft 239 kts 46°
2026-04-22 01:55 16.52270 -22.95405 2125 ft 229 kts 17°
2026-04-22 01:56 16.53778 -22.95107 2039 ft 213 kts
2026-04-22 01:56 16.55187 -22.94935 2004 ft 198 kts
2026-04-22 01:56 16.56571 -22.94884 1927 ft 198 kts
2026-04-22 01:56 16.57936 -22.94882 1863 ft 195 kts
2026-04-22 01:57 16.59284 -22.94884 1794 ft 194 kts
2026-04-22 01:57 16.60639 -22.94885 1730 ft 195 kts
2026-04-22 01:57 16.61985 -22.94886 1662 ft 191 kts
2026-04-22 01:57 16.63300 -22.94887 1563 ft 186 kts
2026-04-22 01:58 16.64564 -22.94888 1504 ft 177 kts
2026-04-22 01:58 16.65759 -22.94888 1499 ft 169 kts
2026-04-22 01:58 16.66901 -22.94889 1244 ft 154 kts
2026-04-22 01:58 16.67928 -22.94888 1073 ft 149 kts
2026-04-22 01:59 16.68958 -22.94889 848 ft 147 kts
2026-04-22 01:59 16.69980 -22.94892 656 ft 149 kts
2026-04-22 01:59 16.71002 -22.94884 484 ft 145 kts
2026-04-22 01:59 16.71999 -22.94884 277 ft 138 kts
2026-04-22 02:00 16.72914 -22.94894 160 ft 122 kts
2026-04-22 02:00 16.73623 -22.94899 155 ft 80 kts
2026-04-22 02:00 16.74026 -22.94898 154 ft 36 kts 360°
2026-04-22 02:00 16.74186 -22.94898 153 ft 12 kts 13°
2026-04-22 02:01 16.74243 -22.94837 154 ft 12 kts 59°
2026-04-22 02:01 16.74276 -22.94780 154 ft 7 kts 58°
2026-04-22 02:01 16.74289 -22.94729 154 ft 7 kts 97°
2026-04-22 02:01 16.74248 -22.94700 155 ft 8 kts 170°
2026-04-22 02:02 16.74195 -22.94698 155 ft 8 kts 179°
2026-04-22 02:02 16.74131 -22.94698 155 ft 14 kts 180°
2026-04-22 02:02 16.74024 -22.94698 154 ft 15 kts 179°
2026-04-22 02:02 16.73916 -22.94696 154 ft 15 kts 179°
2026-04-22 02:03 16.73810 -22.94696 155 ft 15 kts 180°
2026-04-22 02:03 16.73701 -22.94695 155 ft 15 kts 179°
2026-04-22 02:03 16.73616 -22.94641 155 ft 15 kts 119°
2026-04-22 02:03 16.73521 -22.94598 155 ft 15 kts 177°
2026-04-22 02:04 16.73321 -22.94594 155 ft 7 kts 179°
2026-04-22 02:04 16.73273 -22.94593 155 ft 7 kts 178°
2026-04-22 02:04 16.73241 -22.94560 155 ft 7 kts 105°
2026-04-22 02:05 16.73237 -22.94521 155 ft 3 kts 93°
2026-04-22 02:05 16.73236 -22.94515 155 ft 0 kts 92°